This is the latest recevied weather packets stored in our database for station/object E23XBQ-1. If no packets are shown the sender has not sent any weather packets the latest 10 day(s).
| Time | Temp. | Humidity | Pressure | Rain* | Wind** | Luminosity | Snow |
|---|---|---|---|---|---|---|---|
| 1778121884 | 33.89° C | 59% | 972 hPa | - | - | 0 W/m² | - |
| 1778121258 | 33.89° C | 60% | 973 hPa | - | - | 0 W/m² | - |
| 1778120632 | 33.33° C | 62% | 972 hPa | - | - | 0 W/m² | - |
| 1778120008 | 32.78° C | 68% | 972 hPa | - | - | 0 W/m² | - |
| 1778119384 | 31.67° C | 69% | 972 hPa | - | - | 0 W/m² | - |
| 1778118759 | 31.67° C | 74% | 972 hPa | - | - | 0 W/m² | - |
| 1778118134 | 31.11° C | 80% | 973 hPa | - | - | 0 W/m² | - |
| 1778117510 | 30.56° C | 81% | 973 hPa | - | - | 0 W/m² | - |
| 1778116885 | 29.44° C | 91% | 973 hPa | - | - | 0 W/m² | - |
| 1778116260 | 28.89° C | 99% | 973 hPa | - | - | 0 W/m² | - |
| 1778115635 | 27.78° C | 99% | 973 hPa | - | - | 0 W/m² | - |
| 1778114999 | 27.78° C | 99% | 973 hPa | - | - | 0 W/m² | - |
| 1778114373 | 27.78° C | 99% | 973 hPa | - | - | 0 W/m² | - |
| 1778113749 | 27.22° C | 99% | 973 hPa | - | - | 0 W/m² | - |
| 1778113125 | 26.67° C | 99% | 973 hPa | - | - | 0 W/m² | - |
| 1778112500 | 26.11° C | 99% | 973 hPa | - | - | 0 W/m² | - |
| 1778111875 | 25.56° C | 99% | 973 hPa | - | - | 0 W/m² | - |
| 1778111250 | 25.56° C | 99% | 972 hPa | - | - | 0 W/m² | - |
| 1778110624 | 26.11° C | 99% | 972 hPa | - | - | 0 W/m² | - |
| 1778109999 | 25.56° C | 99% | 972 hPa | - | - | 0 W/m² | - |
| 1778109374 | 23.89° C | 99% | 972 hPa | - | - | 0 W/m² | - |
| 1778108291 | 23.89° C | 99% | 972 hPa | - | - | 0 W/m² | - |
| 1778107665 | 23.89° C | 99% | 972 hPa | - | - | 0 W/m² | - |
| 1778107040 | 23.89° C | 99% | 972 hPa | - | - | 0 W/m² | - |
| 1778106415 | 23.89° C | 99% | 972 hPa | - | - | 0 W/m² | - |
* Rain since midnight (hover to see other rain measurements)
** Current wind speed in m/s (hover to see current wind gust speed)